Asheville, NC

9:26 AM EST on December 17, 2017 (GMT -0500)
Asheville Regional

Weather History for KAVL - November, 2009

Change the Weather History Date:

Sunday, November 1, 2009

  Actual Average Record
Temperature  
Mean Temperature 50 °F 52 °F  
Max Temperature 54 °F 64 °F 83 °F (1950)
Min Temperature 46 °F 40 °F 22 °F (1890)
Degree Days  
Heating Degree Days 15 13  
Month to date heating degree days 15 13  
Since 1 July heating degree days 347 348  
Cooling Degree Days 0 0  
Month to date cooling degree days 0 0  
Year to date cooling degree days 774 862  
Moisture  
Dew Point 41 °F    
Average Humidity 80    
Maximum Humidity 93    
Minimum Humidity 66    
Precipitation  
Precipitation 0.05 in 0.11 in 1.15 in (1961)
Month to date precipitation 0.05 0.11  
Year to date precipitation 47.76 38.44  
Snow  
Snow 0.00 in 0.00 in 3.20 in (2014)
Month to date snowfall 0.0 0.0  
Since 1 July snowfall 0.0 0.0  
Since 1 September snowfall 0.0 0.0  
Snow Depth 0.00 in    
Sea Level Pressure  
Sea Level Pressure 30.05 in    
Wind  
Wind Speed 14 mph (NNW)    
Max Wind Speed 24 mph    
Max Gust Speed 31 mph    
Visibility 10 miles    
Events Rain    
T = Trace of Precipitation, MM = Missing Value Source: NWS Daily Summary

Daily Weather History Graph

Daily Weather History Graph

Search for Another Location

Airport or City:

Trip Planner

Search our weather history database for the weather conditions in past years. The results will help you decide how hot, cold, wet, or windy it might be!

Date:

Astronomy

Nov. 01, 2009 Rise Set
Actual Time 6:52 AM EST 5:34 PM EST
Civil Twilight 6:25 AM EST 6:01 PM EST
Nautical Twilight 5:55 AM EST 6:31 PM EST
Astronomical Twilight 5:25 AM EST 7:01 PM EST
Moon 4:37 PM EST (11/1) 5:38 AM EST (11/1)
Length of Visible Light 11h 35m
Length of Day
10h 42m
Waxing Gibbous, 99% of the Moon is Illuminated
Nov 1
Waxing Gibbous
Nov 2
Full
Nov 9
Last Quarter
Nov 16
New
Nov 24
First Quarter

Hourly Weather History & Observations

Time (EST) Temp. Windchill Dew Point Humidity Pressure Visibility Wind Dir Wind Speed Gust Speed Precip Events Conditions
12:54 AM 48.0 °F - 46.0 °F 93% 29.94 in 6.0 mi NNW 19.6 mph 27.6 mph 0.08 in Rain Light Rain
1:54 AM 46.9 °F - 45.0 °F 93% 29.93 in 10.0 mi NNW 19.6 mph 25.3 mph 0.04 in Rain Light Rain
1:54 AM 46.9 °F - 43.0 °F 86% 29.95 in 10.0 mi NNW 19.6 mph 27.6 mph 0.00 in   Overcast
2:54 AM 46.0 °F 38.5 °F 42.1 °F 86% 29.94 in 10.0 mi NNW 19.6 mph 28.8 mph N/A   Overcast
3:54 AM 46.0 °F 38.8 °F 41.0 °F 83% 29.95 in 10.0 mi NNW 18.4 mph 26.5 mph N/A   Mostly Cloudy
4:54 AM 46.0 °F 39.9 °F 41.0 °F 83% 29.97 in 10.0 mi NNW 13.8 mph - N/A   Mostly Cloudy
5:26 AM 46.4 °F 39.8 °F 41.0 °F 81% 30.00 in 10.0 mi NNW 16.1 mph 25.3 mph N/A   Scattered Clouds
5:54 AM 46.9 °F - 41.0 °F 80% 30.00 in 10.0 mi NNW 16.1 mph 24.2 mph N/A   Mostly Cloudy
6:54 AM 46.0 °F 39.6 °F 41.0 °F 83% 30.01 in 10.0 mi NNW 15.0 mph - N/A   Partly Cloudy
7:54 AM 46.9 °F - 41.0 °F 80% 30.04 in 10.0 mi NNW 19.6 mph 24.2 mph N/A   Clear
8:54 AM 48.9 °F - 42.1 °F 77% 30.05 in 10.0 mi NNW 21.9 mph 26.5 mph N/A   Partly Cloudy
9:54 AM 50.0 °F - 42.1 °F 74% 30.05 in 10.0 mi North 12.7 mph 24.2 mph 0.01 in   Clear
10:54 AM 52.0 °F - 42.1 °F 69% 30.06 in 10.0 mi North 13.8 mph 23.0 mph N/A   Clear
11:54 AM 52.0 °F - 42.1 °F 69% 30.08 in 10.0 mi North 11.5 mph 19.6 mph N/A   Overcast
12:54 PM 51.1 °F - 42.1 °F 71% 30.08 in 10.0 mi NNW 18.4 mph - N/A   Overcast
1:54 PM 51.1 °F - 43.0 °F 74% 30.07 in 10.0 mi NNW 12.7 mph - N/A   Overcast
2:54 PM 53.1 °F - 43.0 °F 69% 30.07 in 10.0 mi North 13.8 mph - N/A   Overcast
3:54 PM 52.0 °F - 42.1 °F 69% 30.07 in 10.0 mi North 12.7 mph 21.9 mph N/A   Clear
4:54 PM 50.0 °F - 42.1 °F 74% 30.09 in 10.0 mi NNW 16.1 mph 23.0 mph N/A   Clear
5:54 PM 48.0 °F - 41.0 °F 77% 30.10 in 10.0 mi NNW 13.8 mph - N/A   Partly Cloudy
6:54 PM 48.9 °F - 39.9 °F 71% 30.12 in 10.0 mi NNW 12.7 mph 19.6 mph N/A   Overcast
7:54 PM 48.0 °F - 39.0 °F 71% 30.13 in 10.0 mi North 10.4 mph - N/A   Scattered Clouds
8:36 PM 48.2 °F - 39.2 °F 71% 30.14 in 10.0 mi NNW 11.5 mph - N/A   Mostly Cloudy
8:54 PM 48.0 °F - 39.0 °F 71% 30.13 in 10.0 mi NNW 9.2 mph - N/A   Overcast
9:54 PM 48.9 °F - 39.0 °F 69% 30.13 in 10.0 mi North 6.9 mph - N/A   Overcast
10:54 PM 48.0 °F - 39.0 °F 71% 30.12 in 10.0 mi North 9.2 mph - N/A   Overcast